Location: Krasnoyarskiy
(51.1133°N, 71.6497°E)
Time: 22:57:00
(UTC+00:00)

Cosmos 1869 Rocket - Pass Details

Date: 27 September 2022
Orbit: 603 x 633 km, 82.5° (Epoch: 02 December)

Event Time Altitude Azimuth Distance (km) Brightness Sun altitude
Rises 00:28:07 0° 350° (N) 2,940 7.0 -6.9°
Reaches altitude 10° 00:30:23 10° 351° (N) 2,024 6.2 -6.6°
Maximum altitude 00:34:53 83° 78° (ENE) 640 3.7 -5.9°
Drops below altitude 10° 00:39:19 10° 168° (SSE) 1,993 6.3 -5.2°
Sets 00:41:31 0° 170° (S) 2,890 7.1 -4.8°
